RH
66 58 53 83 95 90 84 69 46 32 28 26 21 42 54 54 51 62 98 94 81 92 90 90 88 89 92 94 95 79 92 95 94 94 94 97 99 98 96 93 89 87 85 86 90 93 95 96 96
79 62 81 94 98 98 73 54 47 38 23 38 56 57 59 69 94 97 98 94 79 92 92 90 90 87 90 96 95 91 95 94 92 96 97 95 95 95 92 90 86 85 83 86 95 96 92 95 76
77 68 91 99 98 84 47 51 29 25 23 27 53 68 69 84 91 90 89 97 88 95 92 91 90 85 88 92 88 85 89 98 95 89 86 92 96 94 91 88 89 89 89 97 97 89 89 79 75
74 80 94 99 82 72 45 38 29 26 21 24 55 79 81 82 87 92 99 100 96 94 89 92 87 86 84 84 84 83 92 95 90 86 89 90 94 92 91 93 94 87 91 90 92 84 74 74 72
78 91 94 95 81 58 52 36 27 25 22 24 72 82 87 76 82 100 100 100 99 96 90 86 86 86 79 81 83 86 90 95 97 92 94 94 92 92 94 94 77 79 91 94 90 78 71 72 69
90 93 96 96 89 61 55 42 32 30 28 39 75 92 89 91 100 99 100 96 90 88 88 86 85 86 81 77 80 82 88 92 92 90 92 91 92 94 95 84 84 86 93 91 78 72 71 70 68
86 96 85 71 87 74 58 38 40 31 28 29 76 92 95 97 99 98 99 99 89 86 89 85 86 84 82 82 74 85 85 86 86 87 88 88 88 93 86 86 85 91 96 83 76 72 70 70 68
83 94 82 72 80 84 54 44 35 33 29 46 77 95 95 97 99 100 100 100 94 90 90 89 87 87 84 86 78 85 88 76 76 85 86 91 88 91 91 84 87 88 82 75 74 72 68 72 70
66 90 86 74 67 75 53 46 35 28 41 47 68 79 79 100 100 100 100 98 100 99 85 93 90 88 84 86 86 89 93 78 63 57 81 89 85 79 84 80 82 66 68 71 70 63 63 71 74
80 89 75 60 54 67 77 62 39 41 59 75 91 93 94 98 97 95 96 97 98 100 99 92 90 87 87 88 90 93 99 89 71 54 48 64 70 69 65 64 65 65 62 59 56 54 55 68 71
77 82 76 59 59 76 89 85 58 51 48 74 87 96 93 97 90 90 87 87 94 95 100 95 92 86 90 92 90 89 88 95 87 70 59 47 52 59 60 62 64 64 64 62 62 58 54 57 67
88 69 70 67 68 64 86 90 76 61 63 61 71 89 91 92 88 85 84 86 78 98 100 100 90 92 93 89 88 78 79 83 91 86 76 70 66 59 54 51 53 52 52 53 54 51 60 59 62
96 64 60 62 60 86 81 91 80 61 67 76 77 89 91 88 89 84 86 91 92 97 100 99 87 98 92 86 84 78 66 68 73 85 88 81 78 75 72 65 62 60 59 55 47 54 61 60 59
88 70 58 57 72 76 90 89 89 78 68 76 84 81 85 88 87 88 93 94 98 94 99 100 90 91 91 85 81 73 68 76 76 70 74 87 82 79 76 74 72 74 70 71 71 70 74 76 73
86 94 76 63 70 86 85 89 96 84 68 82 82 81 86 90 89 91 91 95 96 96 100 100 100 90 87 81 76 74 70 79 73 60 56 61 69 77 79 79 79 74 75 77 79 82 82 80 77
98 83 83 63 66 80 87 99 87 85 72 84 88 88 79 81 94 93 94 91 91 94 100 100 100 94 82 80 77 76 74 76 69 63 65 66 62 63 70 78 76 75 77 80 80 81 82 76 73
100 96 96 73 70 91 84 97 86 89 77 83 90 89 79 76 83 100 97 80 73 88 87 92 97 96 87 81 77 74 72 74 70 66 61 61 60 63 66 68 68 74 78 80 81 82 81 72 68
98 92 93 79 82 82 89 84 86 88 87 86 88 88 80 74 69 86 99 88 72 94 71 88 99 93 85 80 81 81 75 77 76 68 57 56 58 61 64 64 64 66 79 82 82 79 75 71 68
100 98 91 76 74 85 90 77 83 83 81 90 87 84 81 76 60 51 93 82 69 69 71 82 82 98 96 85 92 88 82 80 74 68 55 52 51 52 56 61 65 70 78 72 73 69 70 68 70
100 98 95 81 68 77 84 81 75 84 79 94 88 85 83 81 62 53 68 100 81 81 68 69 70 81 81 91 88 90 78 75 70 64 64 66 58 59 55 56 62 66 67 68 68 68 66 68 73
99 90 98 82 86 83 80 92 91 93 85 84 85 80 82 80 75 54 67 91 96 93 83 68 68 67 74 78 95 82 86 83 78 72 68 70 69 68 65 66 70 73 74 71 66 67 72 73 80
96 78 79 85 89 99 91 99 95 90 89 86 87 85 84 81 68 53 58 81 83 66 65 70 65 67 70 64 72 81 76 82 71 81 76 78 76 71 73 75 76 79 79 78 75 73 81 88 92
100 79 80 92 99 96 98 86 73 84 86 87 78 83 81 76 67 52 53 69 69 72 73 66 71 68 78 67 68 72 75 71 65 68 85 84 82 86 85 83 91 91 94 87 82 91 100 91 95
96 93 83 96 100 95 90 80 69 84 63 62 58 73 75 78 59 40 43 53 74 80 82 82 74 74 69 82 84 69 80 74 82 84 92 90 91 88 90 87 85 90 86 84 86 86 82 90 87
100 84 97 98 97 93 86 77 58 57 48 46 48 44 59 51 41 40 65 81 79 83 84 85 81 80 87 70 80 84 85 80 76 83 98 99 93 88 83 82 80 80 85 94 94 92 81 80 86
100 100 92 95 97 97 90 82 56 43 40 41 38 36 37 38 40 43 59 74 76 74 84 89 85 82 71 69 70 77 79 76 77 76 72 76 76 75 79 85 88 82 79 85 87 79 79 78 83
100 98 96 85 78 91 89 71 42 40 43 39 46 43 42 43 44 43 57 67 75 78 78 78 78 76 65 60 68 74 81 79 73 72 70 73 72 72 75 80 76 71 73 79 80 80 85 91 91
97 93 96 93 82 94 83 60 53 54 48 47 48 47 43 40 42 44 59 62 66 70 72 84 85 78 70 73 77 77 82 81 76 73 72 70 69 64 62 65 70 77 80 83 84 83 79 81 83
90 95 93 84 89 87 85 60 45 58 53 45 49 44 42 42 43 49 60 58 65 72 77 83 85 82 84 90 89 84 78 76 74 75 76 69 63 67 73 76 78 78 78 75 71 71 74 78 82
69 74 87 90 90 94 89 75 48 54 55 51 56 56 56 52 50 56 65 62 66 65 62 62 69 82 91 95 88 83 80 79 76 74 72 73 76 77 75 73 69 66 67 69 71 73 78 84 87
Wind_Speed
10 10 5 1 1 1 5 7 2 3 5 2 4 4 9 5 7 5 14 20 35 36 34 31 28 24 23 21 20 22 24 23 23 25 25 27 26 24 22 21 21 22 22 22 22 21 20 19 17
5 5 2 2 4 4 7 6 9 9 5 10 4 1 3 4 3 10 16 30 39 37 35 33 29 25 23 21 21 22 23 25 24 25 26 25 23 22 22 21 22 22 22 22 22 21 20 18 18
6 3 2 4 5 9 11 6 19 4 5 5 6 5 5 5 6 18 16 38 41 36 35 33 30 24 23 23 24 23 23 24 25 25 24 22 22 21 22 22 22 22 23 24 23 21 18 17 17
4 1 4 7 16 15 7 8 6 4 4 5 2 4 0 1 16 16 35 37 39 37 36 34 30 26 22 25 24 24 23 22 26 25 23 22 21 21 21 22 22 24 27 25 22 20 18 17 17
5 2 9 9 21 18 12 4 9 12 4 3 7 5 3 1 8 32 39 37 38 38 36 33 29 26 25 26 27 26 23 22 23 25 23 22 21 21 21 22 24 26 26 23 21 19 17 17 16
3 2 8 12 14 25 5 10 3 7 6 5 3 7 5 7 29 32 36 41 40 38 35 33 29 28 28 26 27 26 24 24 24 24 23 22 22 22 22 24 22 23 23 22 21 19 17 17 14
3 3 11 20 15 21 7 5 8 5 7 6 6 7 2 12 25 35 34 37 40 35 35 33 31 29 29 27 28 27 23 24 26 25 25 24 23 25 22 23 22 21 21 21 20 18 16 14 14
3 3 7 16 11 24 11 10 9 8 7 4 7 6 7 5 29 32 34 31 36 35 34 34 31 30 30 29 28 28 24 23 25 26 26 24 24 25 25 23 21 21 21 21 18 16 15 13 13
2 8 11 19 21 6 9 13 12 8 7 3 6 5 9 33 34 31 35 29 28 29 34 33 32 31 31 29 28 27 25 23 22 23 25 25 24 23 23 22 21 20 20 19 17 15 15 13 11
8 7 17 6 17 9 15 12 19 5 6 3 4 8 31 33 35 32 34 26 25 27 29 33 33 32 32 30 29 28 26 24 23 23 23 23 22 22 21 19 18 18 17 16 15 14 14 14 10
6 17 10 13 11 9 4 17 7 7 15 5 8 17 22 24 28 26 28 45 23 25 27 33 33 32 33 31 30 29 27 26 24 23 22 22 22 21 20 19 18 16 15 14 13 12 11 11 9
9 16 17 12 9 12 11 11 8 7 2 5 8 22 21 18 21 27 29 37 49 34 32 32 33 33 33 32 31 28 26 28 27 25 23 23 22 20 19 18 17 15 14 12 12 11 11 9 8
15 14 13 16 14 2 9 18 12 5 3 5 5 18 24 22 23 29 31 38 42 38 32 37 36 35 34 32 31 27 27 27 26 25 23 23 22 20 18 16 15 14 13 12 11 11 10 8 7
5 12 14 18 8 8 15 14 4 2 6 10 2 11 18 21 22 23 25 31 37 41 36 35 40 38 36 35 33 29 28 25 24 24 25 23 21 19 18 16 15 13 12 11 10 10 8 6 6
6 8 7 16 10 6 2 15 6 1 10 11 10 8 3 8 26 28 31 35 35 35 37 37 36 42 38 36 33 31 29 25 24 24 24 22 21 19 19 17 14 13 12 11 11 10 9 9 9
7 6 7 12 14 6 13 5 13 6 8 8 7 7 5 4 9 25 28 32 33 35 37 37 38 42 39 37 34 31 30 27 24 25 24 22 20 19 18 19 16 13 13 12 11 11 11 10 11
9 5 6 7 17 9 9 2 15 6 3 5 5 7 7 6 4 8 21 29 34 35 42 43 41 43 42 38 35 32 30 29 26 24 23 22 20 18 17 18 16 16 16 16 15 14 13 11 11
3 6 4 5 10 9 13 10 5 13 2 5 5 6 7 6 3 4 16 24 29 34 40 41 37 41 39 37 35 31 31 28 26 27 25 23 21 20 18 18 19 18 19 18 18 16 14 12 11
5 4 5 2 7 9 12 6 9 7 13 8 7 6 7 7 6 9 10 26 28 30 36 37 36 35 34 36 32 29 31 28 25 28 25 23 21 19 17 16 15 18 19 19 18 16 14 12 10
1 6 4 2 5 2 10 6 11 9 3 9 8 7 5 7 9 8 5 18 30 30 35 36 34 35 33 30 31 23 28 23 23 24 24 21 23 20 19 19 18 18 18 17 18 18 16 11 11
1 5 2 4 6 6 6 4 5 5 4 3 7 7 4 5 8 7 5 15 26 28 31 32 30 28 31 32 30 24 24 22 19 25 28 26 23 21 20 19 17 17 17 18 18 19 18 10 9
2 5 3 8 5 3 3 2 0 5 5 6 6 7 5 7 7 6 6 10 17 26 28 27 28 27 28 28 29 29 27 18 21 29 27 24 23 24 23 23 21 19 18 19 18 18 20 13 13
0 4 4 6 3 2 2 4 1 9 9 12 11 5 6 10 12 11 8 17 22 21 22 26 28 29 27 27 27 23 20 25 26 28 22 19 20 20 17 18 18 21 18 14 16 18 25 15 15
3 4 9 6 3 2 4 3 5 11 18 12 13 11 11 11 19 14 14 19 19 19 21 21 20 20 22 20 20 19 18 19 19 18 23 25 20 20 17 16 20 17 18 25 27 20 13 15 11
3 9 4 2 2 2 2 2 6 9 5 11 16 17 17 17 14 8 8 10 15 19 19 19 19 18 17 17 17 18 16 16 16 17 16 17 16 15 14 14 13 14 13 13 14 13 12 11 12
3 3 4 4 3 3 2 3 4 1 6 7 10 14 15 15 12 9 7 14 20 21 17 17 19 19 17 16 17 17 17 17 17 13 12 14 15 12 11 13 13 12 13 14 13 12 12 13 21
2 2 3 5 3 4 1 6 7 5 6 2 8 8 9 5 6 8 7 11 17 20 21 21 20 18 17 17 17 18 18 22 18 17 16 17 15 13 11 13 13 13 15 16 18 19 16 16 18
3 0 2 3 3 4 2 4 3 8 10 5 6 7 7 6 5 5 4 10 18 23 23 19 19 18 17 18 19 21 22 19 19 18 18 17 14 13 12 13 13 12 12 12 13 14 14 16 17
2 2 2 2 3 4 3 2 3 6 6 5 6 5 3 5 6 7 6 9 16 21 20 18 16 15 15 16 19 20 19 17 15 14 14 13 12 12 12 12 11 10 10 10 10 11 12 12 13
1 2 1 3 2 3 3 3 5 5 5 4 5 6 5 5 5 5 8 16 15 18 20 20 17 15 14 16 16 15 16 15 15 14 12 11 11 9 8 8 8 7 7 7 8 9 10 12 13
Wind_Direction
294 297 274 227 157 90 232 240 237 192 171 32 310 166 189 182 168 205 150 153 156 154 159 158 154 150 145 143 137 136 132 120 125 128 129 127 122 121 118 118 116 116 116 118 116 112 106 102 100
281 273 160 115 197 169 235 221 207 203 171 156 223 157 157 198 102 129 128 160 157 154 159 156 154 152 148 140 138 137 137 126 127 124 123 123 124 121 120 119 119 118 120 120 118 116 109 105 103
285 221 207 188 193 209 218 195 224 197 220 187 140 338 132 180 130 144 152 154 153 154 158 156 153 151 147 140 136 137 141 136 130 131 130 127 124 123 121 122 122 123 124 123 121 116 112 109 107
270 40 258 225 205 221 214 211 200 224 277 215 152 178 353 307 147 157 151 150 149 156 158 156 151 150 151 141 140 141 139 141 140 141 135 131 126 126 126 127 129 128 128 128 125 119 115 114 110
231 254 242 231 214 225 221 243 180 200 209 176 154 186 128 168 154 146 147 149 148 155 158 155 153 152 151 147 145 145 140 137 139 140 136 133 132 131 132 130 130 133 135 133 127 119 115 120 112
262 224 233 231 232 234 262 233 285 163 189 133 130 137 161 143 139 149 149 150 155 156 158 155 156 156 151 148 150 141 140 139 138 138 136 135 136 134 132 131 132 138 140 139 135 128 119 123 117
239 220 234 246 228 249 232 268 234 191 156 200 146 142 125 147 148 151 148 147 155 159 159 157 157 159 153 152 150 145 141 143 141 143 140 141 141 136 136 140 142 142 144 147 143 137 127 125 124
229 236 242 236 237 252 243 258 253 224 180 93 136 181 155 155 144 145 142 146 151 162 162 160 162 161 157 157 153 149 148 144 145 146 146 145 144 144 145 148 147 148 150 152 150 146 139 131 125
212 232 225 234 227 251 284 230 258 236 124 162 183 159 155 142 145 142 140 145 147 161 167 166 166 165 162 161 158 155 154 148 145 148 150 150 149 150 152 152 152 151 153 156 157 154 152 147 139
211 242 227 275 241 227 286 298 240 185 169 184 137 92 137 146 154 153 144 137 171 165 172 173 171 169 166 162 160 159 161 156 151 151 154 154 153 152 152 152 152 153 154 155 156 155 158 161 156
222 229 253 253 286 174 272 299 288 230 191 158 174 149 156 158 155 158 160 146 176 177 171 177 176 173 169 166 165 162 166 164 161 159 157 157 159 160 160 159 159 160 162 162 166 165 163 168 169
258 226 241 279 287 203 267 299 275 232 38 287 260 157 160 153 163 168 166 159 165 183 179 178 181 176 173 169 170 171 173 173 171 167 167 165 165 167 169 170 170 173 175 177 179 179 172 174 183
258 239 213 259 245 283 266 263 259 200 127 21 284 161 162 169 170 170 167 161 164 171 177 180 182 180 178 174 175 176 175 176 177 177 176 176 175 174 174 174 178 178 180 183 185 184 189 199 205
310 258 218 253 233 206 265 296 262 216 75 43 135 173 171 172 164 164 166 166 169 164 178 180 182 182 182 180 179 177 175 177 181 183 185 186 185 183 183 185 190 193 197 194 192 193 203 221 239
275 263 193 211 206 181 295 286 230 30 80 57 33 34 34 186 161 176 171 174 170 169 174 180 182 183 186 185 183 183 184 183 182 181 182 188 193 195 197 199 202 202 203 207 211 218 232 239 240
237 245 206 199 187 202 135 287 286 17 65 66 41 41 36 7 187 179 178 176 174 170 176 180 186 187 187 189 186 188 185 186 184 185 189 195 200 206 209 209 210 204 207 211 217 231 241 243 242
228 159 215 176 175 151 150 291 317 28 62 61 26 37 26 345 1 187 177 177 182 180 180 183 189 188 188 189 188 189 186 187 190 192 196 198 202 206 212 211 215 215 219 222 223 231 243 240 242
350 166 178 204 181 158 164 208 323 354 25 40 343 28 19 354 303 303 177 179 190 187 189 182 187 187 188 190 190 192 193 195 203 200 199 196 201 209 215 223 229 230 227 228 231 232 231 243 262
331 293 185 228 196 147 187 199 211 283 343 347 306 14 359 340 330 340 217 184 202 203 195 186 190 185 184 188 188 194 192 196 205 204 199 200 199 203 210 215 214 219 220 221 222 224 228 243 251
178 258 214 286 186 199 181 155 170 174 240 294 311 337 339 339 342 323 231 180 190 207 208 200 198 192 195 187 192 192 188 193 199 206 204 207 210 209 215 221 218 217 218 219 225 227 230 232 247
153 217 191 103 89 36 112 78 106 137 181 282 325 299 287 313 306 310 242 206 188 197 197 202 201 200 197 197 197 182 181 187 184 205 209 213 218 217 217 220 224 228 228 232 237 239 240 212 232
170 199 167 78 85 112 317 106 239 110 159 283 279 283 306 312 298 275 247 215 198 199 202 209 207 204 204 210 205 191 194 196 209 214 207 210 213 221 223 227 228 220 220 228 232 246 251 244 238
289 156 161 104 72 58 87 86 85 148 178 222 239 273 311 283 282 285 228 226 211 206 202 206 208 210 211 217 216 211 201 206 223 224 209 206 207 211 214 221 233 233 231 238 246 263 239 261 259
4 163 108 67 53 47 173 154 173 190 210 160 188 204 219 273 275 272 256 224 218 214 203 202 207 204 215 214 222 226 217 216 214 217 209 210 204 209 215 236 248 249 242 245 239 225 213 213 218
0 141 131 146 165 149 201 118 265 213 233 208 184 182 206 217 224 248 198 176 202 211 206 204 205 206 206 220 217 220 222 218 214 211 209 192 192 200 218 228 231 236 235 233 222 225 214 223 232
11 11 148 123 166 98 7 240 263 241 270 240 191 192 202 209 196 214 204 188 191 205 209 204 202 208 211 214 218 217 214 213 200 201 203 199 197 196 200 209 214 229 247 246 236 248 264 261 274
235 67 346 101 25 72 3 298 319 348 11 159 170 184 203 222 197 216 192 189 194 192 202 206 201 206 207 212 211 209 201 192 192 188 188 192 197 207 218 226 236 250 251 248 256 265 269 276 272
66 162 77 357 103 90 263 300 303 341 330 26 155 195 210 203 217 231 233 193 204 200 203 203 203 205 204 204 203 198 190 190 184 187 196 210 215 220 233 235 234 236 241 246 253 263 271 273 275
345 33 46 108 92 142 139 278 214 283 298 18 36 44 18 276 206 209 227 216 205 198 195 195 197 201 199 197 189 187 191 200 203 200 196 203 224 231 226 227 230 232 241 254 268 282 285 280 281
307 333 86 104 294 48 120 307 344 347 24 57 54 49 21 19 355 221 202 196 180 179 185 190 189 188 188 186 188 186 191 189 190 193 203 212 210 213 222 234 238 239 252 269 282 287 290 296 297